LAN1357 SAEZ-SULS

Flight info

Callsign LAN1357
Flight time 0h 34m
Altitude 23000
Route ESLAN1A ESLAN DCT UGIMI DCT DAGUS DCT LUCIO
Aircraft A20N/M-SDE2E3FGHIJ1RWXY/L

Departure

Time 2026-04-25 21:41
Airport Ezeiza International Airport - Ministro Pistarini (SAEZ)

Arrival

Time 2026-04-25 22:15
Airport Capitan Corbeta CA Curbelo International Airport (SULS)
Time Latitude Longitude Altitude Speed Heading
2026-04-25 21:13 -34.81596 -58.53998 72 ft 0 kts 317°
2026-04-25 21:26 -34.81601 -58.53994 72 ft 2 kts 246°
2026-04-25 21:26 -34.81596 -58.53975 62 ft 2 kts 291°
2026-04-25 21:26 -34.81606 -58.53960 62 ft 2 kts 322°
2026-04-25 21:26 -34.81620 -58.53948 63 ft 2 kts 323°
2026-04-25 21:27 -34.81633 -58.53936 62 ft 2 kts 323°
2026-04-25 21:27 -34.81646 -58.53923 69 ft 2 kts 322°
2026-04-25 21:27 -34.81659 -58.53911 62 ft 2 kts 320°
2026-04-25 21:27 -34.81672 -58.53898 62 ft 2 kts 318°
2026-04-25 21:28 -34.81684 -58.53884 62 ft 2 kts 314°
2026-04-25 21:28 -34.81695 -58.53869 62 ft 2 kts 303°
2026-04-25 21:28 -34.81700 -58.53858 62 ft 1 kts 271°
2026-04-25 21:28 -34.81700 -58.53857 62 ft 0 kts 264°
2026-04-25 21:32 -34.81702 -58.53868 62 ft 3 kts 252°
2026-04-25 21:32 -34.81736 -58.53924 65 ft 15 kts 236°
2026-04-25 21:32 -34.81798 -58.54052 67 ft 20 kts 240°
2026-04-25 21:32 -34.81820 -58.54104 63 ft 2 kts 261°
2026-04-25 21:33 -34.81785 -58.54185 70 ft 19 kts 289°
2026-04-25 21:33 -34.81765 -58.54358 67 ft 22 kts 277°
2026-04-25 21:33 -34.81754 -58.54556 65 ft 24 kts 260°
2026-04-25 21:33 -34.81776 -58.54764 71 ft 26 kts 274°
2026-04-25 21:34 -34.81739 -58.54981 71 ft 27 kts 282°
2026-04-25 21:34 -34.81702 -58.55195 66 ft 15 kts 283°
2026-04-25 21:34 -34.81697 -58.55279 68 ft 11 kts 257°
2026-04-25 21:34 -34.81752 -58.55346 70 ft 10 kts 198°
2026-04-25 21:35 -34.81756 -58.55347 70 ft 0 kts 197°
2026-04-25 21:39 -34.81761 -58.55349 63 ft 7 kts 193°
2026-04-25 21:39 -34.81879 -58.55279 64 ft 26 kts 137°
2026-04-25 21:39 -34.81937 -58.55157 66 ft 0 kts 105°
2026-04-25 21:40 -34.81940 -58.55142 60 ft 6 kts 102°
2026-04-25 21:40 -34.82015 -58.54725 71 ft 96 kts 102°
2026-04-25 21:40 -34.82215 -58.53613 99 ft 166 kts 103°
2026-04-25 21:41 -34.82499 -58.52108 586 ft 198 kts 104°
2026-04-25 21:41 -34.82858 -58.50326 1092 ft 236 kts 105°
2026-04-25 21:41 -34.83510 -58.48384 1916 ft 253 kts 127°
2026-04-25 21:41 -34.84739 -58.46822 2917 ft 261 kts 138°
2026-04-25 21:42 -34.86020 -58.45213 3887 ft 268 kts 130°
2026-04-25 21:42 -34.87077 -58.43302 4860 ft 277 kts 118°
2026-04-25 21:42 -34.87627 -58.41031 5854 ft 285 kts 99°
2026-04-25 21:42 -34.87883 -58.38616 6804 ft 291 kts 97°
2026-04-25 21:43 -34.88097 -58.36143 7734 ft 297 kts 96°
2026-04-25 21:43 -34.88292 -58.33615 8660 ft 303 kts 96°
2026-04-25 21:43 -34.88484 -58.31033 9592 ft 309 kts 96°
2026-04-25 21:43 -34.88679 -58.28387 10376 ft 321 kts 95°
2026-04-25 21:44 -34.88887 -58.25576 10727 ft 346 kts 95°
2026-04-25 21:44 -34.89111 -58.22564 11120 ft 366 kts 95°
2026-04-25 21:44 -34.89576 -58.16276 12711 ft 379 kts 95°
2026-04-25 21:45 -34.89813 -58.13055 13512 ft 385 kts 95°
2026-04-25 21:45 -34.89972 -58.10889 13995 ft 389 kts 94°
2026-04-25 21:45 -34.90295 -58.06444 14924 ft 398 kts 95°
2026-04-25 21:45 -34.90540 -58.03068 15640 ft 403 kts 95°
2026-04-25 21:46 -34.90787 -57.99640 16322 ft 409 kts 95°
2026-04-25 21:46 -34.91037 -57.96164 17000 ft 415 kts 95°
2026-04-25 21:46 -34.91289 -57.92642 17688 ft 420 kts 95°
2026-04-25 21:46 -34.91544 -57.89069 18340 ft 426 kts 95°
2026-04-25 21:47 -34.91801 -57.85451 18928 ft 431 kts 95°
2026-04-25 21:47 -34.92060 -57.81788 19521 ft 436 kts 95°
2026-04-25 21:47 -34.92321 -57.78088 20097 ft 441 kts 95°
2026-04-25 21:47 -34.92583 -57.74345 20682 ft 446 kts 95°
2026-04-25 21:48 -34.92846 -57.70560 21258 ft 450 kts 95°
2026-04-25 21:48 -34.93112 -57.66737 21810 ft 455 kts 94°
2026-04-25 21:48 -34.93378 -57.62873 22374 ft 460 kts 94°
2026-04-25 21:48 -34.93647 -57.58965 22677 ft 465 kts 94°
2026-04-25 21:49 -34.93916 -57.55035 22801 ft 465 kts 94°
2026-04-25 21:49 -34.94183 -57.51107 22906 ft 466 kts 94°
2026-04-25 21:49 -34.94449 -57.47191 22959 ft 459 kts 94°
2026-04-25 21:49 -34.94708 -57.43363 22958 ft 449 kts 94°
2026-04-25 21:50 -34.94963 -57.39563 22959 ft 452 kts 94°
2026-04-25 21:50 -34.95218 -57.35737 22957 ft 452 kts 94°
2026-04-25 21:50 -34.95221 -57.31924 22957 ft 448 kts 80°
2026-04-25 21:50 -34.94788 -57.29494 22955 ft 436 kts 68°
2026-04-25 21:51 -34.92916 -57.25310 22959 ft 412 kts 42°
2026-04-25 21:51 -34.90968 -57.22749 22956 ft 413 kts 39°
2026-04-25 21:51 -34.88989 -57.20224 22954 ft 412 kts 39°
2026-04-25 21:51 -34.87013 -57.17708 22961 ft 411 kts 39°
2026-04-25 21:52 -34.85032 -57.15198 22958 ft 411 kts 39°
2026-04-25 21:52 -34.83049 -57.12697 22960 ft 410 kts 39°
2026-04-25 21:52 -34.81061 -57.10199 22959 ft 410 kts 39°
2026-04-25 21:52 -34.79074 -57.07713 22960 ft 410 kts 39°
2026-04-25 21:53 -34.77081 -57.05229 22956 ft 410 kts 39°
2026-04-25 21:53 -34.75208 -57.02598 22959 ft 417 kts 52°
2026-04-25 21:53 -34.73970 -56.99371 22958 ft 427 kts 71°
2026-04-25 21:53 -34.73540 -56.95781 22963 ft 432 kts 88°
2026-04-25 21:54 -34.73522 -56.92131 22953 ft 431 kts 89°
2026-04-25 21:54 -34.73520 -56.88497 22740 ft 428 kts 89°
2026-04-25 21:54 -34.73517 -56.84891 22332 ft 425 kts 89°
2026-04-25 21:54 -34.73509 -56.81316 21843 ft 421 kts 89°
2026-04-25 21:55 -34.73497 -56.77744 21109 ft 424 kts 89°
2026-04-25 21:55 -34.73601 -56.74184 20745 ft 416 kts 99°
2026-04-25 21:55 -34.74413 -56.70891 20523 ft 398 kts 117°
2026-04-25 21:55 -34.75676 -56.67993 20332 ft 378 kts 123°
2026-04-25 21:56 -34.76948 -56.65272 20052 ft 364 kts 122°
2026-04-25 21:56 -34.77741 -56.63491 19720 ft 361 kts 120°
2026-04-25 21:56 -34.79252 -56.59805 18837 ft 370 kts 118°
2026-04-25 21:56 -34.80347 -56.56929 18114 ft 378 kts 116°
2026-04-25 21:57 -34.81433 -56.53981 17294 ft 383 kts 116°
2026-04-25 21:57 -34.82508 -56.51021 16514 ft 382 kts 116°
2026-04-25 21:57 -34.83576 -56.48070 15752 ft 380 kts 116°
2026-04-25 21:57 -34.84637 -56.45138 15015 ft 378 kts 116°
2026-04-25 21:58 -34.85695 -56.42219 14284 ft 376 kts 116°
2026-04-25 21:58 -34.86746 -56.39320 13552 ft 373 kts 116°
2026-04-25 21:58 -34.87791 -56.36438 12761 ft 371 kts 115°
2026-04-25 21:58 -34.88828 -56.33579 11995 ft 367 kts 115°
2026-04-25 21:59 -34.89855 -56.30744 11248 ft 364 kts 115°
2026-04-25 21:59 -34.90870 -56.27940 10565 ft 359 kts 115°
2026-04-25 21:59 -34.91846 -56.25234 10344 ft 339 kts 115°
2026-04-25 22:00 -34.93635 -56.20267 9993 ft 301 kts 115°
2026-04-25 22:00 -34.94455 -56.17990 9763 ft 287 kts 115°
2026-04-25 22:00 -34.95251 -56.15781 9288 ft 283 kts 115°
2026-04-25 22:00 -34.96026 -56.13626 8993 ft 272 kts 115°
2026-04-25 22:01 -34.96784 -56.11521 8407 ft 273 kts 115°
2026-04-25 22:01 -34.97557 -56.09374 7943 ft 276 kts 115°
2026-04-25 22:01 -34.98318 -56.07255 7585 ft 271 kts 115°
2026-04-25 22:01 -34.98562 -56.06572 7453 ft 270 kts 115°
2026-04-25 22:02 -34.99815 -56.03080 6731 ft 268 kts 115°
2026-04-25 22:02 -35.00572 -56.00970 6261 ft 273 kts 115°
2026-04-25 22:02 -35.01074 -55.99569 6024 ft 271 kts 115°
2026-04-25 22:02 -35.01828 -55.97465 5666 ft 270 kts 115°
2026-04-25 22:03 -35.02577 -55.95372 5305 ft 268 kts 115°
2026-04-25 22:03 -35.03322 -55.93291 5064 ft 269 kts 114°
2026-04-25 22:03 -35.04093 -55.91135 4969 ft 279 kts 114°
2026-04-25 22:03 -35.04859 -55.88973 4945 ft 276 kts 112°
2026-04-25 22:04 -35.05207 -55.86673 4953 ft 279 kts 88°
2026-04-25 22:04 -35.04900 -55.84358 4947 ft 272 kts 73°
2026-04-25 22:04 -35.04395 -55.82196 4947 ft 259 kts 75°
2026-04-25 22:04 -35.03912 -55.80056 4952 ft 263 kts 74°
2026-04-25 22:05 -35.03405 -55.77913 4952 ft 262 kts 73°
2026-04-25 22:05 -35.02876 -55.75785 4953 ft 261 kts 72°
2026-04-25 22:05 -35.02334 -55.73665 4956 ft 262 kts 72°
2026-04-25 22:05 -35.01785 -55.71551 4948 ft 261 kts 72°
2026-04-25 22:06 -35.01235 -55.69444 4814 ft 261 kts 72°
2026-04-25 22:06 -35.00685 -55.67338 4608 ft 259 kts 72°
2026-04-25 22:06 -35.00138 -55.65243 4407 ft 259 kts 72°
2026-04-25 22:06 -34.99592 -55.63151 4200 ft 258 kts 72°
2026-04-25 22:07 -34.99031 -55.61072 4000 ft 258 kts 70°
2026-04-25 22:07 -34.98626 -55.59716 3866 ft 255 kts 69°
2026-04-25 22:07 -34.97838 -55.57037 3596 ft 247 kts 70°
2026-04-25 22:07 -34.97298 -55.55075 3396 ft 241 kts 71°
2026-04-25 22:08 -34.96792 -55.53145 3194 ft 237 kts 72°
2026-04-25 22:08 -34.96310 -55.51254 3043 ft 230 kts 72°
2026-04-25 22:08 -34.95833 -55.49369 3017 ft 233 kts 72°
2026-04-25 22:08 -34.95367 -55.47517 3024 ft 227 kts 72°
2026-04-25 22:09 -34.94901 -55.45668 3017 ft 228 kts 72°
2026-04-25 22:09 -34.94428 -55.43797 3025 ft 237 kts 72°
2026-04-25 22:09 -34.93939 -55.41867 3025 ft 238 kts 72°
2026-04-25 22:09 -34.93450 -55.39937 3027 ft 239 kts 72°
2026-04-25 22:10 -34.92956 -55.38009 3022 ft 238 kts 72°
2026-04-25 22:10 -34.92458 -55.36084 3025 ft 238 kts 71°
2026-04-25 22:10 -34.91958 -55.34158 3026 ft 238 kts 71°
2026-04-25 22:10 -34.91458 -55.32232 3025 ft 238 kts 71°
2026-04-25 22:11 -34.90970 -55.30351 2987 ft 226 kts 71°
2026-04-25 22:11 -34.90513 -55.28586 2925 ft 208 kts 71°
2026-04-25 22:11 -34.90091 -55.26958 2698 ft 198 kts 71°
2026-04-25 22:11 -34.89671 -55.25351 2238 ft 200 kts 72°
2026-04-25 22:12 -34.89260 -55.23773 1855 ft 188 kts 72°
2026-04-25 22:12 -34.88887 -55.22340 1727 ft 165 kts 72°
2026-04-25 22:12 -34.88565 -55.21098 1727 ft 149 kts 72°
2026-04-25 22:12 -34.88356 -55.20295 1737 ft 147 kts 72°
2026-04-25 22:13 -34.87964 -55.18780 1535 ft 139 kts 72°
2026-04-25 22:13 -34.87666 -55.17636 1103 ft 144 kts 71°
2026-04-25 22:13 -34.87368 -55.16500 838 ft 136 kts 72°
2026-04-25 22:13 -34.87075 -55.15444 689 ft 133 kts 72°
2026-04-25 22:14 -34.86805 -55.14372 638 ft 133 kts 74°
2026-04-25 22:14 -34.86521 -55.13305 465 ft 132 kts 72°
2026-04-25 22:14 -34.86255 -55.12248 305 ft 130 kts 73°
2026-04-25 22:14 -34.85981 -55.11194 140 ft 131 kts 73°
2026-04-25 22:15 -34.85761 -55.10345 93 ft 52 kts 73°
2026-04-25 22:15 -34.85720 -55.10192 92 ft 5 kts 59°
2026-04-25 22:15 -34.85697 -55.10179 92 ft 3 kts
2026-04-25 22:16 -34.85659 -55.10186 92 ft 0 kts 348°
2026-04-25 22:16 -34.85656 -55.10183 92 ft 1 kts 25°
2026-04-25 22:16 -34.85667 -55.10156 94 ft 11 kts 122°
2026-04-25 22:16 -34.85671 -55.10004 92 ft 24 kts 73°
2026-04-25 22:17 -34.85714 -55.09883 91 ft 18 kts 162°
2026-04-25 22:17 -34.85831 -55.09838 91 ft 15 kts 162°
2026-04-25 22:17 -34.85917 -55.09855 93 ft 13 kts 182°
2026-04-25 22:17 -34.85993 -55.09834 93 ft 6 kts 164°